Regional Weather Roundup
Issued by NWS

Home | Current Version | Previous Version | Graphics & Text | Print | Product List | Glossary On
Versions: 1 2 3 4 5 6 7 8 9 10 11 12 13 14 15 16 17 18 19 20 21 22 23 24 25 26 27 28 29 30 31 32 33 34 35 36 37 38 39 40 41 42 43 44 45 46 47 48 49 50
000
ASUS44 KMEG 221600
RWRTN
TENNESSEE HOURLY STATE WEATHER ROUNDUP
NATIONAL WEATHER SERVICE MEMPHIS TN
1000 AM CST SUN JAN 22 2017

TNZ002-004-019-021-049-052-054-088>092-221700-
WEST TENNESSEE

CITY           SKY/WX    TMP DP  RH WIND       PRES   REMARKS
MEMPHIS INTL   CLOUDY    56  55  97 CALM      29.38F
NWS MEMPHIS      N/A     55 N/A N/A MISG        N/A
JACKSON        CLOUDY    57  56  96 CALM      29.42R FOG
DYERSBURG      CLOUDY    57  52  82 E5        29.42R
UNION CITY     MOSUNNY   59  59 100 CALM      29.42S
PARIS          MOSUNNY   57  52  82 CALM      29.44S
$$

TNZ008-025-027-028-033-062-065-066-221700-
NORTH MIDDLE TENNESSEE

CITY           SKY/WX    TMP DP  RH WIND       PRES   REMARKS
NASHVILLE      PTSUNNY   59  55  87 SE8       29.47F
CLARKSVILLE    CLOUDY    57  51  80 E6        29.45F
SMYRNA         CLOUDY    59  56  89 SE6       29.48F
CROSSVILLE     PTSUNNY   57  51  80 S13G21    29.49S
$$

TNZ061-075-076-078-094-096-097-221700-
SOUTH MIDDLE TENNESSEE

CITY           SKY/WX    TMP DP  RH WIND       PRES   REMARKS
TULLAHOMA      SUNNY     57  54  88 S6        29.48S
WINCHESTER     SUNNY     57  54  88 SE7       29.47F
COLUMBIA       MOSUNNY   59  59 100 E7        29.43F
SHELBYVILLE    PTSUNNY   61  55  82 S3        29.48S
$$

TNZ017-018-042-046-047-221700-
NORTHEAST TENNESSEE

CITY           SKY/WX    TMP DP  RH WIND       PRES   REMARKS
TRI CITIES     CLOUDY    56  53  90 N3        29.54S
$$

TNZ012-013-036-069-073-074-221700-
CENTRAL EAST TENNESSEE

CITY           SKY/WX    TMP DP  RH WIND       PRES   REMARKS
KNOXVILLE      MOSUNNY   60  54  80 CALM      29.48S
OAK RIDGE      CLOUDY    54  51  90 CALM      29.51F
GATLINBURG     SUNNY     55  54  94 CALM      29.49S
$$

TNZ083-085-099-221700-
SOUTHEAST TENNESSEE

CITY           SKY/WX    TMP DP  RH WIND       PRES   REMARKS
CHATTANOOGA    CLOUDY    62  55  77 S7        29.52R
$$

SKY/WX REPORTED AS FAIR MEANS FEW OR NO CLOUDS BELOW
12 THOUSAND FEET.





USA.gov is the U.S. government's official web portal to all federal, state and local government web resources and services.